Regional Weather Roundup
Issued by NWS

Home | Current Version | Previous Version | Graphics & Text | Print | Product List | Glossary On
Versions: 1 2 3 4 5 6 7 8 9 10 11 12 13 14 15 16 17 18 19 20 21 22 23 24 25 26 27 28 29 30 31 32 33 34 35 36 37 38 39 40 41 42 43 44 45 46 47 48 49 50
644
ASUS43 KIND 251159
RWRIN

WEATHER ROUNDUP FOR INDIANA
NATIONAL WEATHER SERVICE INDIANAPOLIS IN
800 AM EDT WED MAY 25 2016

NOTE: "FAIR" INDICATES FEW OR NO CLOUDS BELOW 12,000 FEET WITH NO
SIGNIFICANT WEATHER AND/OR OBSTRUCTIONS TO VISIBILITY.

* - STATION DOES NOT REPORT WEATHER SUCH AS PRECIPITATION OR FOG.

+ - STATION NOT QUALITY CONTROLLED BY THE NATIONAL WEATHER SERVICE.
    USE DATA WITH CAUTION...ESPECIALLY DEWPOINT AND RELATIVE
    HUMIDITY OBSERVATIONS.

INZ001>003-010>013-019-020-251300-
NORTHWEST INDIANA

CITY           SKY/WX    TMP DP  RH WIND       PRES   REMARKS
RENSSELAER +   SUNNY     68  59  73 S7        30.04R

$$

LMZ046-743>745-251300-
SOUTHERN LAKE MICHIGAN

STATION/POSITION TIME  TEMP    WIND        PRES    WAVE
                       AIR SEA DIR/SP/G            HT
                 (UTC) (F)     (DEG/KT/KT) (MB)    (FT)
BURNS HARBOR     1100   69     160/  7/ 10 1015.9S
MICHIGAN CITY    1100   68     130/  6/  8   N/A
5NW MICH CITY    1100   63 57  150/  4/  6   N/A     0

$$

INZ004-005-014>016-021>024-251300-
NORTH CENTRAL INDIANA

CITY           SKY/WX    TMP DP  RH WIND       PRES   REMARKS
GOSHEN         SUNNY     68  55  63 S6        30.04S
6HR MIN TEMP:  58; 6HR MAX TEMP:  68;

SOUTH BEND     SUNNY     67  57  70 S7        30.03S
6HR MIN TEMP:  61; 6HR MAX TEMP:  68;


$$

INZ006>009-017-018-025>027-251300-
NORTHEAST INDIANA

CITY           SKY/WX    TMP DP  RH WIND       PRES   REMARKS
ANGOLA *+      SUNNY     64  57  77 CALM      30.06S
FORT WAYNE     CLOUDY    66  55  67 S6        30.08R
6HR MIN TEMP:  61; 6HR MAX TEMP:  66;


$$

INZ028-029-035-036-043>045-051>053-251300-
WEST CENTRAL INDIANA

CITY           SKY/WX    TMP DP  RH WIND       PRES   REMARKS
CRAWFORDSVL +  MOSUNNY   62  58  87 S6        30.07R
6HR MIN TEMP:  61; 6HR MAX TEMP:  65;

GREENCASTLE +  PTSUNNY   64  61  88 S3        30.08R
LAFAYETTE      MOSUNNY   66  57  72 S6        30.05R
6HR MIN TEMP:  61; 6HR MAX TEMP:  66;

TERRE HAUTE    PTSUNNY   66  60  81 S6        30.07R
6HR MIN TEMP:  60; 6HR MAX TEMP:  67;


$$

INZ030>032-037>040-046>048-054>057-064-065-251300-
CENTRAL INDIANA

CITY           SKY/WX    TMP DP  RH WIND       PRES   REMARKS
COLUMBUS       CLOUDY    64  61  88 S5        30.09R
INDIANAPOLIS   PTSUNNY   67  58  72 SE10      30.05R
6HR MIN TEMP:  65; 6HR MAX TEMP:  70;

-EAGLE CREEK   CLOUDY    68  57  68 SE3       30.06R
6HR MIN TEMP:  64; 6HR MAX TEMP:  68;

KOKOMO *+      PTSUNNY   64  55  72 S7        30.06R
6HR MIN TEMP:  61; 6HR MAX TEMP:  64;

SHELBYVILLE    CLOUDY    70  57  63 S10       30.08R
6HR MIN TEMP:  63; 6HR MAX TEMP:  70;


$$

INZ033-034-041-042-049-050-058-059-251300-
EAST CENTRAL INDIANA

CITY           SKY/WX    TMP DP  RH WIND       PRES   REMARKS
MUNCIE         CLOUDY    69  55  60 S7        30.08R
6HR MIN TEMP:  64; 6HR MAX TEMP:  69; 6HR PCP: TRACE;


$$

INZ060-061-067>069-081>083-085>088-251300-
SOUTHWEST INDIANA

CITY           SKY/WX    TMP DP  RH WIND       PRES   REMARKS
EVANSVILLE     CLOUDY    65  61  87 CALM      30.08R
6HR MIN TEMP:  61; 6HR MAX TEMP:  67;

HUNTINGBURG *+ CLOUDY    64  57  77 SE6       30.08R
6HR MIN TEMP:  63; 6HR MAX TEMP:  70;


$$

INZ062-063-066-070>080-084-089>092-251300-
SOUTH CENTRAL AND SOUTHEAST INDIANA

CITY           SKY/WX    TMP DP  RH WIND       PRES   REMARKS
BLOOMINGTON    SUNNY     67  57  70 S7        30.09R
6HR MIN TEMP:  62; 6HR MAX TEMP:  69;

MADISON *+     CLOUDY    64  55  72 SE5       30.12S
SEYMOUR +      CLOUDY    68  59  73 CALM      30.09R

$$





USA.gov is the U.S. government's official web portal to all federal, state and local government web resources and services.